Regional Weather Roundup
Issued by NWS Newport/Morehead, NC

Current Version | Previous Version | Text Only | Print | Product List | Glossary On
Versions: 1 2 3 4 5 6 7 8 9 10 11 12 13 14 15 16 17 18 19 20 21 22 23 24 25 26 27 28 29 30 31 32 33 34 35 36 37 38 39 40 41 42 43 44 45 46 47 48 49 50
000
ASUS42 KMHX 281213
RWRMHX
WEATHER ROUNDUP FOR EASTERN NORTH CAROLINA
NATIONAL WEATHER SERVICE NEWPORT/MOREHEAD CITY NC
800 AM EDT THU MAY 28 2015

NOTE: "FAIR" INDICATES FEW OR NO CLOUDS BELOW 12,000 FEET
WITH NO SIGNIFICANT WEATHER AND/OR OBSTRUCTIONS TO VISIBILITY

NCZ015>017-031-032-045>047-102-103-281300-
NORTH COAST

CITY           SKY/WX    TMP DP  RH WIND       PRES   REMARKS
EDENTON        CLOUDY    72  66  82 SW8       30.25R
ELIZABETH CITY PTSUNNY   73  66  78 SW9       30.25R
KITTY HAWK     MOSUNNY   74  64  72 S6        30.24S
MANTEO         CLOUDY    73  64  72 S13       30.25S

$$

NCZ045>047-081-094-103-104-281300-
CENTRAL COAST

CITY           SKY/WX    TMP DP  RH WIND       PRES   REMARKS
FRISCO         MOSUNNY   74  60  61 S6        30.26S
SWANQUARTER      N/A     77 N/A N/A S8        30.21S

$$

NCZ095-097-098-100-101-281300-
SOUTHERN COAST

CITY           SKY/WX    TMP DP  RH WIND       PRES   REMARKS
BEAUFORT       SUNNY     74  63  68 SE7       30.25R
CEDAR ISLAND     N/A     77 N/A N/A SE8       30.30S
JACKSONVILLE   PTSUNNY   72  66  81 CALM      30.25R
PINEY ISLAND   SUNNY    N/A N/A N/A SE8       30.25R
WILMINGTON     SUNNY     73  65  75 SE5       30.24S


$$

NCZ011>013-027>030-043-044-078>080-089-090>093-098-281300-
COASTAL PLAIN

CITY           SKY/WX    TMP DP  RH WIND       PRES   REMARKS
AHOSKIE        PTSUNNY   69  66  88 CALM      30.25R
CLINTON        MOSUNNY   71  67  90 CALM      30.26R
ELIZABETHTOWN  PTSUNNY   71  67  87 SE5       30.24R
GOLDSBORO      CLOUDY    70  65  85 CALM      30.23R
GREENVILLE     PTSUNNY   72  66  83 SW5       30.26R
HAVELOCK       MOSUNNY   72  65  78 E5        30.26R
KENANSVILLE    CLOUDY    69  64  84 CALM      30.27R
KINSTON        PTSUNNY   72  66  83 S3        30.26R
NEW BERN       PTSUNNY   74  64  71 S5        30.26R
RICHLANDS      SUNNY     72  63  73 S5        30.25R
ROCKY MOUNT    PTSUNNY   70  69  97 S6        30.25R FOG
WASHINGTON     PTSUNNY   71  65  81 S3        30.26R
WHITEVILLE     MOSUNNY   72  65  80 CALM      30.24R

$$

AMZ130-135-150-152-154-156-158-170-250-252-270-ANZ085-086-088-633-658-670-281300-
MARINE OBSERVATIONS

STATION/POSITION TIME  TEMP    WIND        PRES    WAVE   SWELL
                       AIR SEA DIR/SP/G            HT/PER HT/PER
                 (UTC) (F)     (DEG/KT/KT) (MB)    (FT/S) (FT/S)
CHESAPEAKE LIGHT 1100   67     190/ 20/ 21 1023.7
64 E VA BEACH    1150   66 63  160/  8/  8 1024.2    3/ 7   3/ 7
DUCK             1100   72 54  180/ 11/ 13 1022.8
2 E DUCK         1111      59                N/A     2/ 6
OREGON INLET     1100   73 76  180/  8/ 11 1024.2
13E OREGON INLT  1200      70                N/A     3/ 8
HATTERAS CG      1100   74 75  170/  5/  6 1024.0
DIAMOND BUOY     1150   75 77  180/  4/  6 1024.7    2/ 8   2/ 8
CAPE LOOKOUT     1200   74     100/  6/  6 1024.2
BEAUFORT LAB     1100   73 75  130/  7/  7 1023.1
27 SE WRIGHTSVLE 1100      76   70/  2/  4   N/A
5 SE WRIGHTSVLE  1108   75 76  160/  6/  8 1023.8
225 S CAPE HAT   1150   74 74   60/ 12/ 14 1023.5    5/ 8   5/ 8
41 SE CHARLESTON 1150   75 78   80/  8/ 10 1022.7    3/ 7   3/ 7

$$



USA.gov is the U.S. government's official web portal to all federal, state and local government web resources and services.